Weather in Kamenka

Russia / Novgorod Oblast     57°18′40″N   31°03′37″E
temp.,
°C
wind,
m/s
gust,
m/s
humid.,
%
clouds,
%
prec.,
mm/h
press.,
hPa
HPBL,
m
5 august, thu
thu500:00+14ene2269100 0.0 101736
03:00+13ene2371100 0.0 101680
06:00+12nne1180100 0.2 101728
09:00+11ne2596100 1.4 1016178
12:00+11ne4997100 2.9 1016385
15:00+12ne4998100 6.1 1015444
18:00+12nne4999100 1.1 1014424
21:00+12nne41099100 2.3 1014476
6 august, fri
fri600:00+12nne4998100 0.3 1014500
03:00+12ne3899100 0.8 1014409
06:00+12ne389990 0.4 1013373
09:00+13ne4996100 0.4 1012462
12:00+17ene5879100 0.1 1012883
15:00+18ene5768100 0.1 10101167
18:00+18ene597294 0.0 1009947
21:00+15ene51388100 0.2 1008642
7 august, sat
sat700:00+15ene51297100 1.4 1007581
03:00+16e41199100 1.9 1006595
06:00+16ese3898100 0.1 1006462
09:00+17ese3697100 0.1 1006376
12:00+18sse2697100 1.3 1006380
15:00+20s368450 3.1 1007782
18:00+20ssw4670100 0.1 1007755
21:00+16ssw248157 0.1 1008112
8 august, sun
sun800:00+12s25952 0.0 1009109
03:00+12s2498100 0.0 1009106
06:00+14s2697100 0.3 1010311
09:00+14ssw3798100 0.4 1010475
12:00+16ssw3692100 0.2 1011532
15:00+18sw3786100 0.7 1013671
18:00+19w267972 0.1 1013656
21:00+16nnw0092100 0.1 101411
9 august, mon
mon900:00+15sse119693 0.0 101414
03:00+14s229547 0.0 101515
06:00+14se23948 0.0 101453
09:00+20sse247159 0.0 1014346
12:00+24s356166 0.0 1014897
15:00+23ssw368441 1.7 1013732
18:00+21wsw3789100 3.3 1013480
21:00+17sw2597100 5.3 1013149